SCP
0 0 0 0 0 0 0 0 0 0 0 0 0 0 0 0 0 0 0 0 0 0 0 0 0 0 0 0 0 0 0 0 0 0 0 0 0 0 0 0 0 0 0 0 0
0 0 0 0 0 0 0 0 0 0 0 0 0 0 0 0 -0 0 0 0 0 0 0 0 0 0 0 0 0 0 0 0 0 0 0 0 0 0 0 0 0 0 0 0 0
0 0 0 0 0 0 0 0 0 0 0 0 0 0 0 0 -0 -0 -0 0 0 0 0 0 0 0 0 0 0 0 0 0 0 0 0 0 0 0 0 0 0 0 0 0 0
0 0 0 0 0 0 0 0 0 0 0 0 0 0 0 0 0 0 0 0 1 0 0 0 0 0 0 0 0 0 0 0 0 0 0 0 0 0 0 0 0 0 0 0 0
0 0 0 0 0 0 0 0 0 0 0 0 0 0 0 0 0 0 0 0 0 0 0 0 0 0 0 0 0 0 0 0 0 0 0 0 0 0 0 -0 0 0 0 0 0
0 0 0 0 0 0 0 0 0 0 0 0 0 0 0 0 0 0 0 0 0 0 0 0 0 0 0 0 0 0 0 0 0 0 0 0 0 0 0 0 0 0 0 0 0
0 0 0 0 0 0 0 0 0 0 0 0 0 0 0 0 0 0 0 0 0 0 0 0 0 0 0 0 0 0 0 0 0 0 0 0 0 0 0 0 0 0 0 0 0
0 0 0 0 0 0 0 0 0 0 0 0 0 0 0 0 0 0 0 0 0 0 0 0 0 0 0 0 0 0 0 0 0 0 0 0 0 0 0 0 0 0 0 0 0
0 0 0 0 0 0 0 0 0 0 0 0 0 0 0 0 0 0 0 0 0 0 0 0 0 0 0 0 0 0 0 0 0 0 0 0 0 0 0 0 0 0 0 0 -0
0 0 0 0 0 0 0 0 0 -0 -0 -0 0 0 0 0 0 0 0 0 0 0 0 0 0 0 0 0 0 0 0 0 0 0 0 0 0 0 0 0 0 0 0 0 0
0 0 0 0 0 0 0 -0 0 0 0 0 0 0 0 0 0 0 0 0 0 0 0 0 0 0 0 0 0 0 0 0 0 0 0 0 0 0 0 0 0 0 0 0 0
0 0 0 0 0 0 0 0 0 0 0 0 0 0 0 0 0 0 0 0 0 0 0 0 0 0 0 0 0 0 0 0 0 0 0 0 -0 -0 0 0 0 0 0 0 0
0 0 0 0 0 0 0 0 0 0 -0 -0 0 0 0 0 0 0 0 0 0 0 0 0 0 0 0 0 0 0 0 0 0 0 0 0 -0 0 0 0 0 0 0 0 -0
0 0 0 0 0 0 0 0 0 0 -0 -0 -0 0 0 0 0 0 0 0 0 0 0 0 0 0 0 0 0 0 0 0 0 0 0 0 -0 -0 0 0 -0 0 0 0 0
-0 0 0 0 0 0 0 0 0 0 0 0 0 0 0 0 0 0 0 0 0 0 0 0 0 0 0 0 0 0 0 0 0 0 0 -0 -0 -0 -0 -0 0 0 0 0 -0
0 0 0 0 0 0 0 0 0 0 0 0 0 0 0 0 0 0 0 0 0 0 0 0 0 0 0 0 0 0 0 0 0 0 -0 -0 0 -0 0 -0 0 -0 0 0 -0
0 0 0 0 0 0 0 0 0 0 0 0 0 0 0 0 0 0 0 0 0 0 0 0 0 0 0 0 0 0 0 0 0 0 -0 -0 -0 -0 -0 0 -0 0 0 0 -0
0 0 0 0 0 0 0 0 0 0 0 0 0 0 0 0 0 0 0 0 0 0 0 0 0 0 0 0 0 0 0 0 0 0 0 -0 -0 0 0 -0 0 0 0 0 0
0 0 0 0 0 0 0 0 0 0 0 0 0 -0 -0 -0 0 0 0 0 0 0 0 0 0 0 0 0 0 0 0 0 0 0 0 0 0 0 0 0 0 0 0 0 -0
0 0 0 0 0 0 0 0 0 0 0 0 -0 -0 -0 -0 -0 0 0 0 0 0 0 0 0 0 0 0 0 0 0 0 0 0 0 0 0 0 0 -0 0 0 0 0 0
0 0 0 0 0 0 0 0 0 0 0 0 0 0 -0 -0 -0 0 0 0 0 0 0 0 0 0 0 0 0 0 0 0 0 0 0 0 0 0 0 0 0 0 0 0 -0
0 0 0 -0 0 0 -0 -0 0 0 0 0 0 -0 -0 0 -0 -0 0 0 0 0 0 0 0 0 0 0 0 0 0 0 0 0 0 0 0 0 0 0 0 0 0 -0 -0
0 0 0 0 -0 0 0 0 0 0 -0 -0 0 0 0 0 -0 -0 -0 -0 0 0 0 0 0 0 0 0 0 0 0 0 0 0 0 0 0 0 0 0 0 0 0 -0 -0
0 0 0 0 -0 -0 0 -0 -0 -0 0 0 -0 0 0 0 -0 -0 -0 -0 -0 0 0 0 0 0 0 0 0 0 0 0 0 0 0 0 0 0 0 0 0 0 0 -0 -0
0 0 0 -0 0 -0 0 -0 0 -0 -0 0 -0 -0 0 -0 0 -0 -0 -0 -0 -0 0 0 0 0 0 0 0 0 0 0 0 0 0 0 0 0 0 0 0 0 0 -0 -0
0 0 0 0 0 0 0 -0 -0 -0 -0 -0 -0 -0 -0 -0 -0 0 0 -0 -0 -0 0 0 0 0 0 0 0 0 0 0 0 0 -0 0 0 0 0 0 0 0 0 -0 -0
0 0 0 0 0 0 0 0 0 0 -0 0 -0 -0 -0 0 -0 -0 -0 0 0 -0 0 0 0 0 0 0 0 0 0 0 0 0 0 0 0 -0 0 0 0 0 0 -0 -0
Wind_Speed_500mb
42 46 49 50 53 53 54 53 50 48 49 52 52 51 51 56 54 51 60 47 38 25 27 32 17 36 32 22 20 16 4 9 13 14 14 9 4 3 12 17 30 36 44 45 44
36 40 44 46 46 50 55 58 57 53 52 52 54 55 54 57 61 66 58 49 47 44 44 35 33 35 22 23 20 15 10 20 17 14 14 10 4 23 15 40 49 37 44 55 61
37 38 36 38 42 45 48 51 55 59 55 53 54 53 53 48 57 68 52 44 51 49 48 43 28 40 30 19 28 18 20 29 22 41 21 16 34 18 9 17 41 43 75 75 62
40 41 41 41 41 41 43 46 48 51 53 54 54 55 53 36 16 3 28 37 37 47 46 52 41 31 18 19 43 9 35 53 43 40 12 17 23 37 39 59 71 73 70 63 54
40 41 42 43 44 44 41 39 41 44 48 47 47 45 45 29 49 14 31 24 9 7 31 50 55 44 16 15 22 15 23 38 48 51 51 53 36 38 53 88 77 71 60 70 62
41 42 43 42 43 44 42 42 41 41 44 45 41 32 34 33 63 61 73 53 36 28 11 45 41 57 18 20 15 15 34 34 24 41 55 39 47 24 51 81 68 75 75 74 64
44 46 48 48 49 49 50 48 47 44 44 43 37 27 46 88 48 41 49 75 70 62 50 33 40 40 21 4 18 13 8 15 25 38 17 49 41 20 66 69 62 69 71 70 68
41 44 47 49 51 51 51 52 54 54 56 45 36 24 37 50 55 68 69 51 58 56 48 48 30 47 18 9 6 2 5 9 10 12 17 21 34 21 72 62 68 65 61 67 65
47 48 46 47 49 51 52 54 57 53 44 35 23 20 36 29 53 66 68 80 70 54 41 23 42 29 12 11 4 3 17 14 15 17 10 17 32 35 45 41 53 71 75 75 81
45 48 52 53 49 52 55 54 40 26 16 7 12 9 35 17 25 29 24 40 58 30 42 39 23 12 10 13 29 14 12 12 24 2 8 23 31 38 58 47 56 61 62 72 76
48 49 48 49 54 54 50 55 13 5 16 16 16 34 27 28 34 17 22 26 43 33 19 24 13 38 54 41 18 29 18 21 29 5 6 16 18 36 33 25 38 56 65 75 56
48 50 49 48 48 51 43 15 9 14 24 43 60 69 76 76 37 39 28 24 25 30 21 12 54 40 23 36 38 19 27 42 32 12 8 23 26 34 29 28 43 51 65 66 49
46 47 48 49 49 39 19 9 8 35 11 32 54 35 57 52 47 65 36 24 14 25 48 53 36 26 35 29 30 38 40 36 33 9 9 13 20 32 26 22 41 52 50 51 51
45 46 47 52 35 29 34 8 23 26 7 14 10 14 16 22 20 81 53 24 13 37 32 38 44 36 33 48 38 45 34 29 28 7 10 8 11 25 23 23 14 37 41 35 38
46 48 47 42 45 29 17 22 11 1 8 4 6 5 25 22 17 24 86 50 17 21 20 23 37 55 46 42 39 23 20 24 18 11 2 6 8 13 10 19 21 21 47 36 29
47 46 48 47 28 23 10 12 4 3 15 7 8 21 11 14 27 16 36 58 27 16 21 18 23 40 46 27 37 11 12 7 4 6 7 21 14 11 11 17 15 13 17 21 20
50 45 39 34 26 15 14 5 5 8 12 5 14 26 23 30 11 4 13 37 27 20 20 10 20 3 16 16 15 20 18 2 5 2 10 13 17 30 18 19 23 24 31 17 20
54 45 20 22 15 8 6 4 12 9 14 22 18 20 19 27 25 27 13 10 41 8 15 16 8 24 16 18 21 34 24 13 14 9 8 14 16 13 35 48 46 29 30 25 37
59 28 16 25 9 16 8 6 7 8 11 19 17 10 10 21 14 20 13 12 10 24 9 17 20 9 38 18 35 13 31 18 8 3 3 8 10 14 15 15 14 19 22 40 44
53 13 25 21 13 13 2 7 6 6 16 15 3 8 9 20 15 21 14 23 20 24 9 10 3 25 30 24 34 28 23 13 8 13 9 9 6 11 14 19 11 13 24 37 43
27 7 26 9 11 2 3 8 8 20 22 7 5 6 11 19 12 7 9 31 34 37 17 6 3 8 22 36 29 9 18 7 12 10 10 2 11 13 17 15 18 17 30 45 53
22 6 21 18 4 3 3 7 14 14 22 9 8 13 16 20 11 10 11 10 33 35 20 7 4 9 29 14 36 41 18 17 19 14 6 6 11 9 14 14 16 19 41 47 49
16 11 14 27 4 5 8 12 9 8 9 6 8 9 10 14 11 17 5 5 21 23 22 18 8 3 8 6 9 44 26 24 10 9 30 8 9 3 7 11 15 18 43 48 47
15 9 12 12 8 8 11 9 9 15 13 9 8 8 7 17 14 12 17 9 10 28 32 20 7 7 11 5 10 34 38 35 15 9 14 40 10 9 14 15 11 22 41 50 50
16 4 7 7 9 18 11 8 14 14 6 21 8 1 10 7 12 13 6 13 11 4 6 12 8 7 21 27 19 2 35 40 41 27 12 10 29 13 19 21 19 36 44 48 51
14 9 11 13 17 16 6 6 10 8 6 10 6 16 15 10 9 23 12 5 9 13 5 13 7 13 11 24 17 21 13 39 49 39 27 12 18 17 15 8 19 45 52 54 60
15 14 10 13 10 6 6 8 12 26 19 23 15 20 21 20 13 29 28 34 26 14 8 4 7 11 9 19 17 16 42 22 21 29 30 29 30 9 8 15 23 43 62 68 68
Wind_Direction_500mb
302 296 297 294 293 294 291 289 286 283 279 278 278 277 279 279 271 265 260 265 268 249 235 238 231 218 206 219 199 182 104 249 237 174 244 193 340 170 311 309 304 290 284 283 282
317 309 304 300 298 294 290 290 289 288 284 278 276 275 275 280 282 271 260 262 260 254 251 233 224 204 196 208 201 178 170 227 201 191 235 189 232 298 325 316 296 289 301 297 283
346 342 336 324 308 300 296 293 289 288 283 279 278 276 275 279 291 279 279 252 244 247 240 230 212 208 211 199 200 200 211 232 271 245 257 294 289 312 274 281 275 295 305 307 295
341 340 337 336 334 327 312 301 296 293 292 287 279 277 273 275 238 198 196 186 211 226 220 210 194 190 193 207 216 189 232 238 249 265 273 257 289 297 274 266 286 296 301 300 285
340 338 335 333 331 327 325 322 312 300 297 294 290 286 281 250 234 231 200 185 113 181 220 203 188 197 181 198 222 227 238 243 257 273 281 280 267 258 284 288 291 294 297 299 291
332 331 329 326 325 324 324 322 317 312 304 300 297 291 277 253 254 249 241 238 239 263 236 205 200 206 214 213 182 225 232 248 266 273 275 278 271 274 269 279 286 291 293 293 292
328 327 326 325 323 321 319 318 315 312 311 304 296 290 262 247 248 255 245 243 245 251 249 229 210 183 214 288 251 251 266 268 236 244 248 270 277 249 275 280 278 282 287 287 289
325 323 323 322 321 320 317 310 307 312 303 288 275 278 257 268 269 256 246 242 235 244 248 239 239 234 220 247 315 300 161 262 190 224 246 207 277 264 273 270 270 273 280 289 285
325 325 322 321 320 317 316 310 315 309 304 283 249 244 274 272 261 269 248 241 238 239 239 224 220 218 174 172 347 326 258 256 298 213 212 186 279 267 270 274 278 281 287 284 286
328 325 323 324 322 321 319 318 319 316 345 98 189 262 258 259 293 295 291 238 225 231 219 217 206 179 182 162 212 196 246 229 246 319 173 269 266 272 273 266 261 277 283 289 282
332 329 326 323 322 324 325 333 348 323 329 267 243 234 257 277 313 264 270 198 196 196 172 176 194 214 206 208 198 225 225 238 253 197 232 251 271 275 280 263 263 274 285 288 284
333 332 330 326 323 320 323 342 74 340 300 289 277 253 271 270 285 270 229 156 185 195 148 161 219 215 187 202 209 199 228 245 275 230 226 271 273 283 286 268 266 274 283 291 292
333 332 330 326 325 321 346 360 337 333 259 286 262 249 245 246 229 252 223 186 178 183 193 201 221 189 196 200 197 216 217 233 245 358 257 300 289 286 284 262 275 275 282 297 286
332 332 331 325 324 318 324 220 322 326 302 267 218 243 244 225 237 236 219 200 188 198 192 230 227 192 195 209 190 219 209 240 251 162 244 113 290 292 302 288 247 287 302 297 292
322 326 324 323 303 306 316 276 286 164 310 243 177 124 325 190 312 235 215 218 201 176 170 211 191 205 205 202 190 231 185 208 226 212 306 248 273 271 309 290 285 284 294 293 275
329 323 319 316 294 309 319 333 137 129 245 273 68 341 340 253 262 287 180 212 222 200 236 204 207 200 211 201 200 178 94 71 73 130 252 238 198 251 217 227 268 271 291 296 241
337 331 322 308 288 296 305 283 148 211 318 32 347 347 337 349 343 337 238 193 196 187 207 172 224 209 155 146 166 165 125 286 310 242 222 203 194 245 261 238 232 253 265 249 196
338 332 342 351 304 243 152 97 215 248 248 359 340 330 319 15 335 353 336 188 224 249 182 190 189 192 178 185 168 182 172 161 189 203 244 193 210 245 219 233 240 249 265 214 183
340 345 21 342 326 147 166 197 231 355 9 344 339 1 331 13 342 346 332 356 26 238 255 192 228 168 175 174 164 190 210 162 130 227 132 227 265 299 223 218 230 228 197 193 181
343 3 9 357 116 139 121 258 274 5 336 337 355 331 341 341 320 351 323 32 2 356 348 268 232 214 198 176 196 185 138 171 205 195 227 287 251 219 200 215 196 203 200 186 177
345 24 14 28 153 121 176 258 293 293 334 293 323 316 308 305 331 337 287 310 352 354 336 308 171 271 148 202 173 148 178 141 160 152 171 180 259 216 200 199 211 220 196 181 181
2 26 357 348 2 0 293 288 309 290 307 264 252 229 264 293 314 320 261 257 336 336 343 302 309 249 207 171 194 199 180 165 195 192 173 168 262 251 226 215 203 200 184 184 189
346 306 346 10 31 320 292 280 261 289 308 305 307 326 312 310 321 321 35 129 297 332 347 340 305 170 349 168 208 201 199 189 86 106 207 161 247 334 264 221 234 190 181 185 185
351 350 352 8 9 336 336 288 316 299 310 302 275 275 292 283 258 275 289 303 265 300 313 320 269 256 211 245 122 200 201 190 148 156 177 221 241 252 283 242 204 182 188 185 186
5 329 349 328 334 322 304 290 310 340 329 332 314 303 350 294 319 272 355 342 263 309 340 324 279 291 280 272 297 39 204 208 212 212 174 207 207 217 223 222 209 192 179 183 187
1 346 317 284 309 324 319 264 301 311 286 291 238 305 299 251 256 286 308 260 250 135 131 326 282 337 299 281 279 272 256 216 210 217 232 227 246 212 255 137 168 176 180 187 196
355 330 293 287 314 325 262 330 306 318 292 232 278 300 298 290 296 284 280 267 251 292 163 164 316 351 292 336 315 259 238 231 231 216 200 209 225 172 208 205 201 186 188 196 202
Wind_Speed_850mb
42 46 49 50 53 53 54 53 50 48 49 52 52 51 51 56 54 51 60 47 38 25 27 32 17 36 32 22 20 16 4 9 13 14 14 9 4 3 12 17 30 36 44 45 44
36 40 44 46 46 50 55 58 57 53 52 52 54 55 54 57 61 66 58 49 47 44 44 35 33 35 22 23 20 15 10 20 17 14 14 10 4 23 15 40 49 37 44 55 61
37 38 36 38 42 45 48 51 55 59 55 53 54 53 53 48 57 68 52 44 51 49 48 43 28 40 30 19 28 18 20 29 22 41 21 16 34 18 9 17 41 43 75 75 62
40 41 41 41 41 41 43 46 48 51 53 54 54 55 53 36 16 3 28 37 37 47 46 52 41 31 18 19 43 9 35 53 43 40 12 17 23 37 39 59 71 73 70 63 54
40 41 42 43 44 44 41 39 41 44 48 47 47 45 45 29 49 14 31 24 9 7 31 50 55 44 16 15 22 15 23 38 48 51 51 53 36 38 53 88 77 71 60 70 62
41 42 43 42 43 44 42 42 41 41 44 45 41 32 34 33 63 61 73 53 36 28 11 45 41 57 18 20 15 15 34 34 24 41 55 39 47 24 51 81 68 75 75 74 64
44 46 48 48 49 49 50 48 47 44 44 43 37 27 46 88 48 41 49 75 70 62 50 33 40 40 21 4 18 13 8 15 25 38 17 49 41 20 66 69 62 69 71 70 68
41 44 47 49 51 51 51 52 54 54 56 45 36 24 37 50 55 68 69 51 58 56 48 48 30 47 18 9 6 2 5 9 10 12 17 21 34 21 72 62 68 65 61 67 65
47 48 46 47 49 51 52 54 57 53 44 35 23 20 36 29 53 66 68 80 70 54 41 23 42 29 12 11 4 3 17 14 15 17 10 17 32 35 45 41 53 71 75 75 81
45 48 52 53 49 52 55 54 40 26 16 7 12 9 35 17 25 29 24 40 58 30 42 39 23 12 10 13 29 14 12 12 24 2 8 23 31 38 58 47 56 61 62 72 76
48 49 48 49 54 54 50 55 13 5 16 16 16 34 27 28 34 17 22 26 43 33 19 24 13 38 54 41 18 29 18 21 29 5 6 16 18 36 33 25 38 56 65 75 56
48 50 49 48 48 51 43 15 9 14 24 43 60 69 76 76 37 39 28 24 25 30 21 12 54 40 23 36 38 19 27 42 32 12 8 23 26 34 29 28 43 51 65 66 49
46 47 48 49 49 39 19 9 8 35 11 32 54 35 57 52 47 65 36 24 14 25 48 53 36 26 35 29 30 38 40 36 33 9 9 13 20 32 26 22 41 52 50 51 51
45 46 47 52 35 29 34 8 23 26 7 14 10 14 16 22 20 81 53 24 13 37 32 38 44 36 33 48 38 45 34 29 28 7 10 8 11 25 23 23 14 37 41 35 38
46 48 47 42 45 29 17 22 11 1 8 4 6 5 25 22 17 24 86 50 17 21 20 23 37 55 46 42 39 23 20 24 18 11 2 6 8 13 10 19 21 21 47 36 29
47 46 48 47 28 23 10 12 4 3 15 7 8 21 11 14 27 16 36 58 27 16 21 18 23 40 46 27 37 11 12 7 4 6 7 21 14 11 11 17 15 13 17 21 20
50 45 39 34 26 15 14 5 5 8 12 5 14 26 23 30 11 4 13 37 27 20 20 10 20 3 16 16 15 20 18 2 5 2 10 13 17 30 18 19 23 24 31 17 20
54 45 20 22 15 8 6 4 12 9 14 22 18 20 19 27 25 27 13 10 41 8 15 16 8 24 16 18 21 34 24 13 14 9 8 14 16 13 35 48 46 29 30 25 37
59 28 16 25 9 16 8 6 7 8 11 19 17 10 10 21 14 20 13 12 10 24 9 17 20 9 38 18 35 13 31 18 8 3 3 8 10 14 15 15 14 19 22 40 44
53 13 25 21 13 13 2 7 6 6 16 15 3 8 9 20 15 21 14 23 20 24 9 10 3 25 30 24 34 28 23 13 8 13 9 9 6 11 14 19 11 13 24 37 43
27 7 26 9 11 2 3 8 8 20 22 7 5 6 11 19 12 7 9 31 34 37 17 6 3 8 22 36 29 9 18 7 12 10 10 2 11 13 17 15 18 17 30 45 53
22 6 21 18 4 3 3 7 14 14 22 9 8 13 16 20 11 10 11 10 33 35 20 7 4 9 29 14 36 41 18 17 19 14 6 6 11 9 14 14 16 19 41 47 49
16 11 14 27 4 5 8 12 9 8 9 6 8 9 10 14 11 17 5 5 21 23 22 18 8 3 8 6 9 44 26 24 10 9 30 8 9 3 7 11 15 18 43 48 47
15 9 12 12 8 8 11 9 9 15 13 9 8 8 7 17 14 12 17 9 10 28 32 20 7 7 11 5 10 34 38 35 15 9 14 40 10 9 14 15 11 22 41 50 50
16 4 7 7 9 18 11 8 14 14 6 21 8 1 10 7 12 13 6 13 11 4 6 12 8 7 21 27 19 2 35 40 41 27 12 10 29 13 19 21 19 36 44 48 51
14 9 11 13 17 16 6 6 10 8 6 10 6 16 15 10 9 23 12 5 9 13 5 13 7 13 11 24 17 21 13 39 49 39 27 12 18 17 15 8 19 45 52 54 60
15 14 10 13 10 6 6 8 12 26 19 23 15 20 21 20 13 29 28 34 26 14 8 4 7 11 9 19 17 16 42 22 21 29 30 29 30 9 8 15 23 43 62 68 68
Wind_Direction_850mb
302 296 297 294 293 294 291 289 286 283 279 278 278 277 279 279 271 265 260 265 268 249 235 238 231 218 206 219 199 182 104 249 237 174 244 193 340 170 311 309 304 290 284 283 282
317 309 304 300 298 294 290 290 289 288 284 278 276 275 275 280 282 271 260 262 260 254 251 233 224 204 196 208 201 178 170 227 201 191 235 189 232 298 325 316 296 289 301 297 283
346 342 336 324 308 300 296 293 289 288 283 279 278 276 275 279 291 279 279 252 244 247 240 230 212 208 211 199 200 200 211 232 271 245 257 294 289 312 274 281 275 295 305 307 295
341 340 337 336 334 327 312 301 296 293 292 287 279 277 273 275 238 198 196 186 211 226 220 210 194 190 193 207 216 189 232 238 249 265 273 257 289 297 274 266 286 296 301 300 285
340 338 335 333 331 327 325 322 312 300 297 294 290 286 281 250 234 231 200 185 113 181 220 203 188 197 181 198 222 227 238 243 257 273 281 280 267 258 284 288 291 294 297 299 291
332 331 329 326 325 324 324 322 317 312 304 300 297 291 277 253 254 249 241 238 239 263 236 205 200 206 214 213 182 225 232 248 266 273 275 278 271 274 269 279 286 291 293 293 292
328 327 326 325 323 321 319 318 315 312 311 304 296 290 262 247 248 255 245 243 245 251 249 229 210 183 214 288 251 251 266 268 236 244 248 270 277 249 275 280 278 282 287 287 289
325 323 323 322 321 320 317 310 307 312 303 288 275 278 257 268 269 256 246 242 235 244 248 239 239 234 220 247 315 300 161 262 190 224 246 207 277 264 273 270 270 273 280 289 285
325 325 322 321 320 317 316 310 315 309 304 283 249 244 274 272 261 269 248 241 238 239 239 224 220 218 174 172 347 326 258 256 298 213 212 186 279 267 270 274 278 281 287 284 286
328 325 323 324 322 321 319 318 319 316 345 98 189 262 258 259 293 295 291 238 225 231 219 217 206 179 182 162 212 196 246 229 246 319 173 269 266 272 273 266 261 277 283 289 282
332 329 326 323 322 324 325 333 348 323 329 267 243 234 257 277 313 264 270 198 196 196 172 176 194 214 206 208 198 225 225 238 253 197 232 251 271 275 280 263 263 274 285 288 284
333 332 330 326 323 320 323 342 74 340 300 289 277 253 271 270 285 270 229 156 185 195 148 161 219 215 187 202 209 199 228 245 275 230 226 271 273 283 286 268 266 274 283 291 292
333 332 330 326 325 321 346 360 337 333 259 286 262 249 245 246 229 252 223 186 178 183 193 201 221 189 196 200 197 216 217 233 245 358 257 300 289 286 284 262 275 275 282 297 286
332 332 331 325 324 318 324 220 322 326 302 267 218 243 244 225 237 236 219 200 188 198 192 230 227 192 195 209 190 219 209 240 251 162 244 113 290 292 302 288 247 287 302 297 292
322 326 324 323 303 306 316 276 286 164 310 243 177 124 325 190 312 235 215 218 201 176 170 211 191 205 205 202 190 231 185 208 226 212 306 248 273 271 309 290 285 284 294 293 275
329 323 319 316 294 309 319 333 137 129 245 273 68 341 340 253 262 287 180 212 222 200 236 204 207 200 211 201 200 178 94 71 73 130 252 238 198 251 217 227 268 271 291 296 241
337 331 322 308 288 296 305 283 148 211 318 32 347 347 337 349 343 337 238 193 196 187 207 172 224 209 155 146 166 165 125 286 310 242 222 203 194 245 261 238 232 253 265 249 196
338 332 342 351 304 243 152 97 215 248 248 359 340 330 319 15 335 353 336 188 224 249 182 190 189 192 178 185 168 182 172 161 189 203 244 193 210 245 219 233 240 249 265 214 183
340 345 21 342 326 147 166 197 231 355 9 344 339 1 331 13 342 346 332 356 26 238 255 192 228 168 175 174 164 190 210 162 130 227 132 227 265 299 223 218 230 228 197 193 181
343 3 9 357 116 139 121 258 274 5 336 337 355 331 341 341 320 351 323 32 2 356 348 268 232 214 198 176 196 185 138 171 205 195 227 287 251 219 200 215 196 203 200 186 177
345 24 14 28 153 121 176 258 293 293 334 293 323 316 308 305 331 337 287 310 352 354 336 308 171 271 148 202 173 148 178 141 160 152 171 180 259 216 200 199 211 220 196 181 181
2 26 357 348 2 0 293 288 309 290 307 264 252 229 264 293 314 320 261 257 336 336 343 302 309 249 207 171 194 199 180 165 195 192 173 168 262 251 226 215 203 200 184 184 189
346 306 346 10 31 320 292 280 261 289 308 305 307 326 312 310 321 321 35 129 297 332 347 340 305 170 349 168 208 201 199 189 86 106 207 161 247 334 264 221 234 190 181 185 185
351 350 352 8 9 336 336 288 316 299 310 302 275 275 292 283 258 275 289 303 265 300 313 320 269 256 211 245 122 200 201 190 148 156 177 221 241 252 283 242 204 182 188 185 186
5 329 349 328 334 322 304 290 310 340 329 332 314 303 350 294 319 272 355 342 263 309 340 324 279 291 280 272 297 39 204 208 212 212 174 207 207 217 223 222 209 192 179 183 187
1 346 317 284 309 324 319 264 301 311 286 291 238 305 299 251 256 286 308 260 250 135 131 326 282 337 299 281 279 272 256 216 210 217 232 227 246 212 255 137 168 176 180 187 196
355 330 293 287 314 325 262 330 306 318 292 232 278 300 298 290 296 284 280 267 251 292 163 164 316 351 292 336 315 259 238 231 231 216 200 209 225 172 208 205 201 186 188 196 202